Regional Weather Roundup
Issued by NWS

Home | Current Version | Previous Version | Graphics & Text | Print | Product List | Glossary On
Versions: 1 2 3 4 5 6 7 8 9 10 11 12 13 14 15 16 17 18 19 20 21 22 23 24 25 26 27 28 29 30 31 32 33 34 35 36 37 38 39 40 41 42 43 44 45 46 47 48 49 50
000
ASUS43 KMPX 201401
RWRMN
WEATHER ROUNDUP FOR MINNESOTA
NATIONAL WEATHER SERVICE TWIN CITIES/CHANHASSEN MN
800 AM CST TUE FEB 20 2018


NOTE: "FAIR" INDICATES FEW OR NO CLOUDS BELOW 12,000 FEET WITH NO
SIGNIFICANT WEATHER AND/OR OBSTRUCTIONS TO VISIBILITY. N/A MEANS
CURRENT SKY AND/OR WEATHER CONDITIONS ARE NOT AVAILABLE.

MNZ060>063-068>070-201500-
   Twin Cities Metro

CITY           SKY/WX    TMP DP  RH WIND       PRES   REMARKS
TWIN CITIES    FRZ DRZL  20  18  92 N8        29.87R WCI  10
ST PAUL        CLOUDY    20  17  88 NW8       29.88R WCI  10
CRYSTAL        CLOUDY    19  14  81 NW9       29.87R WCI   8
BLAINE         CLOUDY    19  18  93 N6        29.86R WCI  11
LAKEVILLE      CLOUDY    19  19 100 NW7       29.85S FOG     WCI  10
EDEN PRAIRIE   CLOUDY    19  15  84 NW8       29.87R WCI   9
SOUTH ST PAUL  CLOUDY    21  18  87 NW5       29.86R WCI  15
LAKE ELMO      CLOUDY    21  19  93 N3        29.86R
$$
MNZ001>005-007-008-013>017-022>024-027-028-201500-
   Northwest Minnesota

CITY           SKY/WX    TMP DP  RH WIND       PRES   REMARKS
BEMIDJI        LGT SNOW   4   0  81 N9        29.95S WCI -10
HALLOCK        LGT SNOW   3   0  85 N8        30.12S WCI -10
WARROAD        LGT SNOW   3   0  85 NW8       30.05S WCI -10
THIEF RVR FALL LGT SNOW   3  -1  83 N16       30.05R FOG     WCI -16
CROOKSTON      LGT SNOW   3   0  85 N18       30.08S WCI -17
FOSSTON        LGT SNOW   3  -2  78 N12       30.00S WCI -13
DETROIT LAKES  LGT SNOW   7   3  85 NW13      29.97S WCI  -9
MOORHEAD       LGT SNOW   3   0  85 N18       30.06R WCI -17
PARK RAPIDS    LGT SNOW   6   1  80 N8        29.93R WCI  -7
MAHNOMEN       LGT SNOW   5   1  83 N17       29.98F WCI -15
$$
MNZ006-009>011-018-025>026-201500-
   North Central Minnesota

CITY           SKY/WX    TMP DP  RH WIND       PRES   REMARKS
BAUDETTE       LGT SNOW   3  -1  83 N12       29.99R FOG     WCI -13
FLAG ISLAND    CLOUDY     3  -2  78 NW9       30.05S HAZE    WCI -11
INTL FALLS     LGT SNOW   4   0  83 N6        29.96R VSB 1   WCI  -7
WASKISH        LGT SNOW   5   1  85 N5        30.00R WCI  -4
BIG FORK       LGT SNOW   5   0  78 N3        29.93R
LONGVILLE      LGT SNOW   7   1  78 N3        29.92R
GRAND RAPIDS   FLURRIES   5   1  83 N9        29.92R WCI  -9
CRANE LAKE     LGT SNOW   1   0  92 CALM      29.95F
ORR            LGT SNOW   3  -2  78 CALM      29.90R
COOK           FLURRIES   3   0  85 CALM      29.91R
WALKER         LGT SNOW   5   0  81 NW6       29.94R WCI  -6
$$
MNZ012-019>021-037-201500-
   Northeast Minnesota

CITY           SKY/WX    TMP DP  RH WIND       PRES   REMARKS
DULUTH         FLURRIES   8   4  83 N8        29.83F WCI  -4
ELY            CLOUDY     3   0  85 N3        29.88F
HIBBING        CLOUDY     4  -1  80 N8        29.89S WCI  -9
EVELETH        CLOUDY   N/A N/A N/A N7        29.89R
DULUTH HARBOR  LGT SNOW  16  12  86 NE13      29.91S WCI   2
TWO HARBORS    CLOUDY    12   7  79 N6        29.85S WCI   3
G MARAIS ARPRT LGT SNOW   1  -4  78 N10       29.80F VSB 1   WCI -14
$$
MNZ029>031-032-039>041-046>048-054>057-064-201500-
   West Central Minnesota

CITY           SKY/WX    TMP DP  RH WIND       PRES   REMARKS
FERGUS FALLS   LGT SNOW   7   1  78 N18       29.98S WCI -12
WHEATON        SNOW       5   0  78 NW21      30.05R VSB 1/4 WCI -16
MORRIS         LGT SNOW   7   3  85 NW17      29.96R WCI -12
ALEXANDRIA     LGT SNOW   9   4  80 N10       29.93R WCI  -5
ELBOW LAKE     LGT SNOW   7   3  86 W12       29.96F WCI  -9
WADENA         LGT SNOW   7   1  78 N9        29.92F WCI  -7
GLENWOOD       FLURRIES   9   5  85 NW8       29.93R WCI  -4
APPLETON       LGT SNOW   9   3  78 NW14      30.00R WCI  -8
BENSON         FLURRIES  10   7  85 N13       29.97R WCI  -5
ORTONVILLE     LGT SNOW   5   1  85 NW15G21   30.01R WCI -13
MADISON        FLURRIES   9   3  78 NW16      30.02R WCI  -9
WILLMAR        CLOUDY    12   9  85 NW12      29.96R WCI  -2
$$
MNZ033>034-036-042>043-049>051-058-059-201500-
   Central Minnesota

CITY           SKY/WX    TMP DP  RH WIND       PRES   REMARKS
ST CLOUD       CLOUDY    12   8  84 NW7       29.91R WCI   1
SAUK CENTRE    FLURRIES   9   4  79 N12       29.92R WCI  -5
PAYNESVILLE    CLOUDY    12   9  85 NW6       29.93R WCI   3
AITKIN         CLOUDY     7   1  78 N9        29.88R WCI  -7
PINE RIVER     FLURRIES   7   1  78 NW6       29.96R WCI  -3
BRAINERD       CLOUDY     9   2  73 N9        29.91R WCI  -4
STAPLES        FLURRIES   7   1  78 N8        29.93R WCI  -6
LONG PRAIRIE   MOCLDY     9   5  85 NW9       29.91R WCI  -5
LITTLE FALLS   LGT SNOW  10   1  67 NW6       29.93R WCI   1
LITCHFIELD     CLOUDY    14  10  85 NW8       29.91R WCI   3
BUFFALO        CLOUDY    14  10  85 NW8       29.89S WCI   3
MAPLE LAKE     CLOUDY    15  12  88 NW8       29.90R WCI   4
HUTCHINSON     CLOUDY    15  11  85 NW9       29.90S WCI   3
$$
MNZ037-044-045-052-053-201500-
   East Central Minnesota

CITY           SKY/WX    TMP DP  RH WIND       PRES   REMARKS
PRINCETON      CLOUDY    14  10  85 NW7       29.89R WCI   4
MORA           MOCLDY    12   9  85 N6        29.89R WCI   3
CAMBRIDGE      FAIR      16   9  73 NW7       29.89R WCI   6
RUSH CITY      CLOUDY    16  12  86 N8        29.86S WCI   5
MOOSE LAKE     CLOUDY    10   5  79 N5        29.87R WCI   2
HINCKLEY       CLOUDY    14  10  85 N8        29.87R WCI   3
CLOQUET        CLOUDY     9   1  72 N13       29.86R WCI  -7
MCGREGOR       CLOUDY    10   5  79 N9        29.89R WCI  -2
$$
MNZ071>073-080-081-089-090-097-098-201500-
   Southwest Minnesota

CITY           SKY/WX    TMP DP  RH WIND       PRES   REMARKS
MONTEVIDEO     FLURRIES   9   7  92 N13       29.97R WCI  -7
GRANITE FALLS  FLURRIES  12   8  84 NW13G20   29.98R WCI  -3
CANBY          CLOUDY     8   3  82 W17G23    30.01R WCI -11
MARSHALL       FLURRIES   8   4  83 NW18      29.98R WCI -11
REDWOOD FALLS  CLOUDY    12   9  87 NW14      29.93S WCI  -3
OLIVIA         FLURRIES  16  12  86 NW12G18   29.92S WCI   3
PIPESTONE      CLOUDY     7   1  78 N16G22    29.91R WCI -11
WINDOM         FLURRIES  10  -2  56 CALM      29.90F
WORTHINGTON    FLURRIES   9   6  88 NW16      29.92R WCI  -8
JACKSON        CLOUDY    12   9  85 NW13      29.89F WCI  -3
TRACY          CLOUDY     9   6  88 NW14      29.95R WCI  -7
SLAYTON        FLURRIES   8   5  86 NW14      29.93R WCI  -8
$$
MNZ065>067-074>077-082>085-091>093-201500-
   South Central Minnesota

CITY           SKY/WX    TMP DP  RH WIND       PRES   REMARKS
MANKATO        CLOUDY    17  14  88 NW10      29.88R WCI   5
NEW ULM        CLOUDY    14  10  85 NW12      29.90R WCI   0
ST JAMES       CLOUDY    14  10  85 W12       29.90F WCI   0
FAIRMONT       CLOUDY    15  12  88 NW15      29.89F WCI   0
GLENCOE        CLOUDY    16  13  86 NW7       29.88R WCI   6
FARIBAULT      CLOUDY    19  18  93 W3        29.85S FOG
OWATONNA       CLOUDY    19  18  93 CALM      29.84R
WASECA         CLOUDY    19  18  93 W5        29.88R FOG     WCI  13
ALBERT LEA     CLOUDY    19  18  93 CALM      29.83S FOG
$$
MNZ078>079-086>088-094>096-201500-
   Southeast Minnesota

CITY           SKY/WX    TMP DP  RH WIND       PRES   REMARKS
ROCHESTER      CLOUDY    21  20  96 NW13      29.81S WCI   9
RED WING       CLOUDY    21  18  86 CALM      29.83F
STANTON        CLOUDY    22  19  89 NW3       29.84S FOG
DODGE CENTER   CLOUDY    19  18  93 NW5       29.81S WCI  13
WINONA         CLOUDY    28  27  93 N7        29.80S WCI  21
AUSTIN         CLOUDY    21  18  86 NW7       29.82S WCI  13
PRESTON        CLOUDY    27  25  95 NW8       29.80R FOG     WCI  18
$$
ABBREVIATIONS USED IN REMARKS
   TC - TEMPERATURES IN CELSIUS
  WCI - WIND CHILL INDEX
   HX - HEAT INDEX
  VSB - VISIBILITY
$$



USA.gov is the U.S. government's official web portal to all federal, state and local government web resources and services.